Theta_e
353 352 351 352 350 350 352 352 352 352 351 350 351 352 351 351 352 350 348 345 342 340 339 341 343 344 345 345 345 345 345 346 346 346 346 345 346 347 347 347 347 347 347 348 348 347 346 347 349 349 348 343 342 341 336 336 336 339 342 344 344 343 344 345 345 346 347 346 346 346 346 348 347 347 346 344 343 344 343 341 343 346 347 347 347
353 352 352 353 351 351 352 352 351 350 349 350 351 352 352 351 349 346 343 339 338 339 341 342 344 346 346 346 345 345 345 345 345 344 344 344 345 345 345 346 347 346 346 347 347 348 347 347 347 348 345 341 341 339 334 333 334 341 345 346 346 346 346 347 347 347 347 347 347 346 346 346 346 347 345 343 342 343 342 341 345 347 346 346 346
352 352 353 353 352 349 350 350 349 350 349 350 351 352 352 349 347 343 338 337 337 340 342 344 346 347 346 345 344 344 344 345 344 344 344 344 344 344 344 344 346 346 347 348 347 347 347 346 345 344 342 341 343 342 339 335 337 344 348 348 348 347 347 347 347 347 347 348 348 347 346 346 346 346 344 343 343 343 343 343 345 347 345 345 346
353 353 352 353 352 349 349 349 348 349 349 351 352 352 350 346 343 339 337 338 338 339 342 346 347 346 345 345 343 342 342 343 344 345 344 343 344 344 344 345 347 349 349 349 348 348 347 346 345 345 344 343 343 344 343 340 340 345 348 349 348 346 346 346 346 347 347 348 348 348 348 348 347 344 343 343 344 345 344 344 345 345 345 345 345
353 353 352 352 352 350 348 349 349 348 350 352 352 349 347 343 339 337 338 339 341 344 344 346 346 344 344 342 341 341 341 342 343 343 343 342 343 344 345 346 348 350 351 349 347 348 349 349 347 347 347 346 344 342 342 341 341 343 348 349 346 345 346 345 345 346 346 346 346 348 349 349 348 345 344 345 346 346 345 346 345 344 344 344 343
352 352 352 352 352 351 349 349 350 350 350 350 348 345 343 340 338 338 339 340 346 348 345 344 344 343 342 341 341 341 341 342 343 342 342 342 342 343 344 346 348 349 350 349 348 349 350 350 349 349 349 348 345 343 341 340 340 342 346 347 345 345 346 344 344 345 344 344 345 348 349 349 349 347 347 346 345 347 347 347 345 345 344 343 342
351 351 351 352 352 351 351 351 352 353 351 348 346 343 341 340 339 338 339 343 349 348 344 343 342 341 341 341 342 342 342 343 343 343 342 342 342 342 343 344 346 348 350 350 350 351 351 350 350 350 350 349 347 346 344 342 340 341 343 344 344 345 345 344 343 343 342 345 347 348 349 349 348 347 347 346 344 346 347 347 346 346 345 343 344
352 351 350 352 351 348 350 351 353 353 351 349 347 345 342 340 338 339 341 348 350 347 343 342 341 341 341 341 342 341 341 342 342 342 343 343 344 343 344 343 344 346 348 350 350 351 351 350 350 350 350 349 348 348 347 345 343 341 343 343 344 344 346 345 341 339 341 346 347 348 349 349 349 347 347 345 344 345 345 346 346 346 346 345 345
352 351 350 352 349 345 347 349 351 350 347 346 345 345 340 338 339 341 344 349 349 344 342 341 341 341 341 341 340 341 341 341 341 341 342 344 345 345 345 345 346 346 347 349 350 349 349 348 348 349 349 348 348 349 348 347 346 344 344 345 345 345 346 347 341 337 342 346 347 348 348 349 348 347 347 345 345 346 345 346 347 347 347 346 346
351 349 350 353 349 345 346 348 349 348 345 345 345 341 337 339 341 340 342 346 344 341 341 341 342 342 342 341 340 341 340 340 340 341 343 344 345 345 346 346 346 346 347 348 349 348 348 347 347 347 348 348 348 349 349 348 348 346 346 347 346 345 346 346 343 338 342 345 346 348 347 348 349 347 347 346 347 347 346 347 347 347 347 347 346
351 349 349 353 350 347 347 347 348 347 346 345 342 339 339 341 339 338 340 341 341 340 341 341 342 342 341 340 340 341 340 340 341 343 345 346 346 346 346 346 346 346 347 348 348 348 348 347 347 347 347 348 348 349 350 349 349 348 348 348 347 346 345 345 345 341 340 343 347 349 348 348 349 348 346 346 347 346 346 347 347 347 347 347 347
351 351 349 351 350 349 348 347 348 346 344 342 341 341 342 340 337 338 339 340 340 340 341 342 341 341 340 340 339 340 340 341 343 346 347 346 347 347 347 347 346 346 347 347 348 348 348 347 348 347 347 347 347 348 349 348 349 349 349 349 348 347 345 343 345 343 339 341 345 348 349 347 348 347 346 347 347 347 347 347 346 346 346 347 347
351 351 350 350 350 350 350 348 346 344 342 342 343 343 342 341 340 339 339 340 339 340 341 341 341 340 340 339 338 338 338 340 343 346 347 348 349 349 348 348 347 347 347 347 347 347 347 347 347 346 346 346 346 347 348 347 347 349 349 348 349 348 345 343 344 344 340 340 342 345 348 349 348 347 347 347 347 348 347 346 346 346 346 346 347
351 351 351 351 351 352 350 347 344 342 342 343 344 342 341 342 342 340 339 339 340 341 341 341 341 340 338 338 337 337 337 339 341 345 348 349 350 349 349 349 347 346 345 346 346 346 347 346 346 345 345 344 344 347 347 347 347 347 348 348 349 348 345 344 344 345 343 340 340 343 345 348 349 347 347 347 347 347 347 346 345 345 345 345 346
351 351 351 350 351 352 351 347 344 343 343 343 343 341 341 342 342 341 339 339 339 340 341 341 340 337 337 337 336 337 337 337 339 344 349 350 349 349 349 349 348 346 345 346 346 345 347 346 345 344 344 345 346 347 348 348 348 347 347 348 349 349 345 346 346 345 345 342 339 341 345 347 347 347 347 347 347 347 347 346 345 345 344 344 345
351 351 351 351 352 352 351 350 347 347 344 342 342 340 340 341 341 340 339 338 339 341 341 339 338 336 335 335 336 337 337 335 337 344 349 350 350 350 349 349 347 346 345 346 346 345 346 346 344 343 343 346 347 348 349 349 349 347 347 348 349 348 346 346 347 345 346 344 340 340 344 345 345 347 347 347 347 346 347 346 346 345 344 344 343
351 351 352 352 352 351 352 352 350 349 346 343 341 340 340 340 340 340 340 339 340 343 342 338 336 335 335 335 335 336 336 334 336 344 350 350 350 350 350 348 346 343 343 344 345 346 346 344 342 342 344 346 347 348 349 348 347 347 348 348 347 347 346 346 348 347 346 345 342 340 344 345 345 347 348 347 347 347 346 346 346 345 344 343 341
351 351 351 351 352 352 352 352 351 350 348 345 343 342 341 340 340 341 341 340 341 344 343 340 336 335 335 334 335 336 336 335 335 344 350 349 349 350 350 348 346 342 342 343 343 343 343 342 341 342 344 347 348 348 347 347 347 347 347 347 346 346 344 345 349 348 346 346 345 343 343 344 345 347 348 346 346 346 346 346 346 346 345 344 340
351 351 351 351 352 352 352 352 351 351 350 348 346 343 342 342 341 342 342 340 341 343 343 342 338 334 334 334 335 336 337 335 335 341 348 348 348 350 349 348 345 341 340 340 340 340 340 339 339 340 344 347 348 348 347 346 346 347 347 347 346 346 346 347 349 348 348 349 347 346 342 340 343 347 347 347 346 345 345 345 346 346 345 345 340
351 351 351 351 352 352 352 351 351 351 351 350 348 345 343 342 342 342 342 340 340 341 342 343 339 335 334 334 334 336 339 338 337 341 345 347 348 349 351 349 345 342 340 338 339 339 339 339 339 340 343 346 347 346 346 346 345 346 347 347 346 348 350 351 350 348 350 350 348 347 341 338 341 345 347 347 346 345 345 345 346 345 345 346 342
351 351 351 351 351 351 351 350 350 350 350 350 348 347 345 343 343 342 342 341 340 340 341 343 341 338 334 333 334 337 340 340 341 342 344 346 347 349 352 351 346 343 340 338 338 340 341 341 340 342 345 346 347 347 347 346 346 346 346 346 348 351 350 350 351 351 351 350 349 348 342 338 341 344 347 347 347 346 345 345 345 345 345 345 343
351 351 350 351 351 350 350 350 350 349 349 349 347 347 346 345 345 343 342 341 342 342 342 343 342 342 339 336 337 338 339 341 342 342 344 347 348 349 352 351 346 341 340 339 339 341 343 344 344 345 347 347 347 349 349 347 346 346 346 346 350 352 348 346 349 352 352 350 350 348 344 341 340 343 347 347 347 346 345 346 345 345 345 345 345
351 351 351 351 351 350 350 350 350 349 349 349 347 347 346 346 346 344 343 343 344 346 346 345 343 343 343 342 341 337 338 341 341 342 345 348 349 350 351 352 349 343 340 339 338 341 344 346 347 348 348 348 348 350 350 348 347 347 345 347 351 349 346 345 347 351 352 351 349 346 345 344 341 342 346 347 346 346 346 346 346 345 345 345 345
351 352 351 351 351 350 351 350 350 350 349 349 348 348 347 347 347 344 345 346 347 349 349 347 344 344 344 343 343 338 337 342 340 341 347 349 350 349 350 351 350 346 343 340 337 339 342 345 346 347 348 348 348 349 349 349 348 347 346 347 349 347 345 345 345 348 350 350 348 344 344 346 343 342 346 347 346 347 347 346 346 345 344 344 344
351 352 352 352 351 350 351 351 350 350 350 349 348 349 348 348 349 346 346 348 348 350 350 348 346 345 344 345 345 337 336 342 341 342 347 349 350 351 352 352 350 348 347 343 339 336 337 340 343 346 347 346 348 348 349 349 348 347 346 346 346 346 345 345 344 344 346 347 347 344 343 345 345 343 345 347 347 347 347 346 346 346 346 344 344
351 351 352 352 351 351 352 351 351 351 351 350 349 349 348 348 349 347 347 349 349 350 350 349 348 347 346 347 346 339 338 343 343 344 347 349 350 352 353 353 352 350 348 347 344 339 337 337 340 343 345 346 347 347 347 348 347 346 347 346 344 344 345 345 343 343 344 344 345 345 342 343 345 344 344 347 348 347 346 346 345 346 347 346 345
351 351 351 352 352 352 352 352 352 352 350 350 350 349 348 348 350 349 349 350 350 350 350 350 349 347 345 344 346 345 344 346 346 346 348 350 351 352 353 353 352 351 348 348 348 346 342 339 339 342 345 347 348 347 348 347 346 346 347 345 343 342 343 343 343 342 342 342 342 344 343 342 343 345 344 345 348 347 347 346 345 346 346 346 346
351 350 351 351 352 352 352 352 352 352 351 350 350 350 349 349 350 349 350 350 349 350 350 350 349 348 346 343 345 346 344 346 348 348 350 350 351 351 352 353 354 352 349 348 349 349 347 344 343 345 346 347 348 348 349 349 347 346 346 344 342 341 342 342 341 340 341 342 341 342 344 343 342 344 344 345 347 348 347 347 346 346 345 345 346
350 350 351 351 351 352 352 351 351 351 351 351 351 351 350 351 351 350 351 350 349 350 350 350 348 348 347 344 344 344 344 346 347 348 350 350 351 351 351 352 353 351 349 349 348 347 348 347 346 347 347 346 348 349 349 349 348 346 344 343 342 341 341 341 340 340 340 341 341 341 342 344 343 343 344 345 346 346 347 348 346 346 344 344 346
350 350 350 351 351 352 352 351 351 351 351 351 352 352 351 351 351 351 350 350 349 350 349 349 349 348 348 344 341 341 342 345 345 346 349 350 351 351 351 352 351 350 350 350 348 346 347 347 347 348 348 347 349 349 349 349 346 344 343 342 342 342 341 341 340 340 341 340 341 341 340 343 344 343 343 343 343 344 347 348 347 346 344 344 346
350 350 350 350 351 351 352 351 351 351 350 351 351 351 352 351 351 350 350 350 350 350 350 350 350 348 345 341 339 338 338 341 342 344 349 350 351 352 352 351 352 351 349 350 348 347 347 347 347 348 347 348 349 349 348 348 345 344 342 340 342 342 340 339 338 339 340 341 341 340 340 341 343 345 344 344 344 344 345 346 346 346 345 344 345
350 350 350 350 351 351 351 352 351 350 350 351 351 351 352 351 351 351 351 351 350 351 351 351 349 345 341 339 339 338 338 339 340 344 349 351 351 352 352 352 352 351 349 349 349 348 349 348 347 348 347 347 349 349 348 347 345 343 341 340 340 341 340 337 336 338 340 341 340 340 341 342 344 345 345 346 346 345 344 343 345 346 345 344 344
350 350 350 350 351 351 352 352 352 351 350 351 352 351 351 351 351 351 351 351 351 351 351 350 347 342 340 340 339 338 339 339 341 345 349 351 352 352 352 352 351 351 350 349 349 349 349 349 348 348 348 349 350 350 349 346 344 343 341 340 339 340 340 336 336 338 339 341 341 340 342 344 345 345 345 346 346 346 345 342 343 345 346 344 343
350 350 350 350 350 351 352 352 352 351 351 351 351 351 351 351 351 352 352 351 352 352 351 349 344 340 340 340 339 340 339 340 343 346 348 350 351 351 352 352 351 351 350 349 349 349 350 351 350 349 350 350 351 349 347 345 343 342 341 339 340 340 337 335 336 339 340 341 341 341 342 344 346 348 347 345 344 344 345 343 342 343 344 344 344
351 351 351 350 351 351 351 352 352 352 351 351 351 351 351 351 351 352 352 352 352 351 351 348 342 339 341 340 340 340 340 340 343 346 348 350 351 352 351 351 351 350 349 349 349 349 350 351 351 351 351 350 349 347 345 344 343 342 341 340 340 339 336 336 338 340 341 342 343 342 342 344 346 348 348 344 343 343 343 343 343 342 344 344 345
351 351 351 351 351 351 351 352 352 352 351 351 351 351 351 351 352 352 351 350 349 349 347 345 342 340 341 341 340 340 340 340 342 346 348 350 351 352 352 351 351 350 350 349 349 349 350 351 351 350 352 351 349 346 344 343 343 342 341 340 339 338 336 337 339 340 341 343 343 343 344 345 345 345 347 346 345 344 342 342 343 344 344 344 345
350 350 351 351 351 351 352 352 352 352 352 352 351 351 351 351 351 351 350 347 345 345 343 341 342 342 341 341 341 340 340 340 342 347 349 351 351 351 352 351 351 350 350 349 349 350 349 351 351 348 350 351 348 345 344 343 342 341 341 340 339 338 337 337 339 341 342 343 343 343 346 347 345 344 347 350 349 345 343 342 342 343 343 344 345
350 350 350 350 351 351 352 352 352 352 352 352 352 352 352 351 351 349 348 344 342 344 344 342 341 342 342 341 341 340 340 341 345 349 351 351 352 352 352 352 352 351 350 350 349 349 348 350 352 349 347 349 348 345 344 343 342 341 341 340 339 338 337 339 340 341 342 343 343 344 345 346 348 348 348 350 349 346 344 344 344 344 344 345 346
350 349 350 350 350 351 352 352 352 352 352 352 352 352 352 352 350 349 348 345 344 345 344 343 342 342 342 342 342 341 341 344 347 350 351 352 351 352 352 352 352 352 352 351 349 349 348 348 351 349 347 348 347 345 343 341 341 341 341 339 338 338 339 340 341 341 342 342 343 343 343 343 346 348 346 346 347 346 345 345 347 348 348 346 345
350 350 350 349 350 351 351 352 351 351 351 352 353 353 352 352 351 351 351 349 349 348 345 344 344 343 343 343 343 343 345 347 349 351 351 352 352 352 352 352 353 352 353 352 350 349 349 349 350 349 348 348 346 345 341 339 340 342 342 340 340 341 340 341 340 341 341 342 343 342 343 342 343 344 342 339 339 342 343 343 345 348 349 346 344
352 351 350 349 350 350 351 351 350 350 351 352 352 352 352 352 352 352 352 352 352 351 348 345 346 347 345 344 345 345 348 350 351 351 351 352 352 352 352 352 352 353 353 353 351 349 349 349 350 348 348 347 346 344 339 339 341 341 343 342 342 343 342 341 341 341 340 342 343 343 344 343 341 341 339 335 332 335 340 342 343 344 345 345 346
353 352 351 350 350 350 350 351 351 350 350 350 350 351 352 351 351 352 352 352 353 352 351 349 348 349 346 345 346 348 350 351 351 351 352 352 351 351 352 352 352 353 353 353 352 350 348 349 349 348 347 347 346 342 337 339 340 341 342 342 342 343 343 341 341 341 340 342 343 343 344 342 341 340 338 336 334 336 339 338 338 339 340 342 344
353 353 352 351 351 351 351 351 351 350 349 349 348 349 349 348 349 351 351 353 354 352 350 350 349 349 347 346 348 349 350 351 351 352 352 352 352 351 352 352 353 353 353 354 353 351 348 348 349 349 348 347 344 339 337 339 340 341 342 340 340 341 342 342 341 340 340 341 342 343 343 342 342 339 337 339 338 338 338 335 333 333 333 335 339
354 353 353 353 352 351 351 351 350 349 349 348 347 347 347 346 347 348 349 351 353 351 349 350 350 350 348 347 349 350 350 350 351 351 352 352 352 351 352 352 352 353 353 354 354 351 348 348 349 349 348 347 344 340 338 338 339 341 341 340 340 339 340 342 341 341 340 341 342 342 342 342 342 339 337 338 337 337 337 333 330 329 328 330 333
354 354 354 353 353 353 352 350 349 349 349 348 347 348 348 348 349 350 350 351 353 353 352 353 352 351 350 350 349 349 350 350 350 351 352 352 352 352 352 352 352 352 352 353 353 351 348 348 349 348 348 347 345 341 339 339 338 339 340 341 340 339 339 341 341 341 341 340 341 342 342 342 341 339 336 333 330 332 337 335 330 328 328 329 331
355 354 354 354 353 353 352 351 350 350 350 350 350 349 349 350 351 352 353 353 354 354 355 355 355 352 352 351 350 349 350 350 351 351 351 353 353 352 351 352 352 352 352 352 352 351 349 348 348 348 348 348 345 341 340 341 339 337 338 340 340 340 340 341 341 341 341 340 340 341 341 342 341 339 336 334 331 330 335 335 332 330 329 328 329
355 355 354 354 354 354 353 352 351 351 351 352 352 351 351 352 352 353 353 354 354 355 355 354 354 352 350 349 348 348 350 351 351 351 352 353 353 352 351 352 352 352 352 353 352 351 350 348 348 348 348 348 344 340 340 342 341 340 339 338 340 341 340 342 341 340 341 341 340 340 340 341 341 340 338 337 335 333 332 332 332 332 330 329 328
354 355 354 354 354 355 354 353 352 352 352 353 352 352 352 353 353 353 354 354 354 355 354 352 352 351 348 348 348 348 349 351 351 352 352 353 352 352 351 352 352 352 352 353 352 351 350 349 348 348 349 348 344 340 340 342 342 343 342 340 341 341 339 341 341 340 340 340 341 340 338 339 340 339 338 337 337 334 331 329 330 330 330 330 329
354 355 355 355 354 355 354 353 353 352 352 352 352 352 352 352 354 354 355 355 354 354 353 352 352 351 350 350 349 348 349 350 351 352 352 352 352 352 352 352 352 352 352 353 353 351 350 349 348 348 349 349 346 341 340 342 341 342 344 342 342 341 340 341 341 341 340 339 339 339 339 338 338 338 337 337 337 334 332 330 330 330 330 331 330
354 354 355 355 355 355 355 354 353 353 353 352 351 352 352 353 354 354 355 355 355 354 354 354 353 352 352 352 350 349 350 350 351 352 352 351 352 352 352 352 351 352 352 352 353 352 350 349 348 348 350 350 348 342 339 341 340 341 344 343 343 342 341 341 340 340 340 340 339 338 339 338 338 338 337 336 337 337 335 331 330 331 331 331 331
354 354 354 354 354 355 355 354 354 353 354 353 352 352 353 354 354 353 354 355 355 354 355 355 354 353 353 353 352 351 350 351 352 352 352 351 351 353 353 352 351 352 352 353 353 352 351 350 349 350 351 351 350 345 341 340 340 341 343 343 343 341 340 340 339 339 340 341 340 338 338 338 337 338 337 335 334 335 335 331 331 332 331 330 331
Wind_Speed
21 22 24 24 25 25 26 28 29 29 29 27 26 24 24 24 24 24 23 23 23 24 24 23 22 20 19 18 17 17 17 17 16 16 16 15 15 15 15 14 14 13 13 12 12 12 11 12 11 11 11 10 10 10 11 12 12 12 11 10 10 10 9 9 10 10 8 8 9 9 10 11 12 12 12 12 12 11 11 12 13 12 12 12 11
22 22 24 24 25 26 27 29 29 29 28 27 25 24 24 24 24 24 24 24 24 24 24 23 21 19 18 17 17 17 17 17 16 16 15 15 15 15 14 14 13 13 12 11 11 11 10 10 10 10 10 10 9 10 10 12 12 11 11 10 10 10 10 9 9 9 8 8 9 10 11 11 12 11 11 12 11 11 11 12 12 12 12 12 11
22 23 24 24 24 27 27 28 30 29 28 26 24 23 23 24 24 24 24 24 24 24 23 22 19 18 18 18 17 17 17 16 16 15 15 14 14 14 14 13 13 12 11 11 10 10 9 9 9 9 9 9 9 9 9 10 10 9 9 9 9 9 9 9 9 9 9 8 9 10 11 11 11 11 11 11 11 11 11 12 12 12 12 11 11
21 22 25 23 23 26 27 28 28 29 27 25 23 23 24 24 24 24 24 24 24 23 22 20 19 18 18 18 17 17 16 16 15 14 14 14 14 13 13 12 12 11 11 11 10 9 9 9 8 8 8 8 7 8 8 9 8 8 8 8 8 8 8 8 8 8 8 8 8 9 10 10 10 11 11 11 11 11 11 11 12 12 12 11 12
20 20 25 23 22 24 26 27 27 28 26 24 24 24 25 25 25 25 24 23 23 21 20 20 19 18 18 18 17 16 15 15 14 14 13 13 13 12 11 11 10 10 10 10 10 9 9 9 8 8 7 6 6 6 7 7 7 7 7 7 6 7 7 7 7 7 7 7 8 8 9 9 10 10 10 10 10 10 10 11 11 12 12 12 12
21 21 24 23 22 23 25 26 26 26 25 25 25 24 25 25 25 24 24 22 20 19 19 19 18 18 18 17 16 15 15 14 13 13 13 12 12 11 11 10 10 10 10 10 10 9 9 9 8 7 7 6 6 5 5 6 6 6 6 6 6 5 5 6 6 6 6 7 7 8 8 9 10 9 9 9 10 10 10 10 11 11 11 12 12
23 23 23 24 24 24 25 25 26 25 24 25 24 23 24 24 25 24 22 21 19 19 19 19 18 18 17 16 16 15 14 13 12 12 12 12 11 11 10 10 9 9 9 9 9 9 9 9 8 8 7 7 6 5 5 4 4 5 5 5 6 5 5 5 5 6 6 6 7 7 8 8 9 9 8 9 10 10 10 10 11 11 11 11 12
22 25 25 25 25 26 26 25 25 24 24 24 24 23 24 25 24 23 21 19 18 19 19 18 18 17 16 15 15 14 13 12 12 12 11 11 10 10 9 9 9 8 8 8 8 8 8 8 8 8 8 7 7 6 6 5 4 4 5 5 5 5 5 5 5 5 6 6 6 7 7 8 9 9 8 10 11 11 10 10 10 10 10 11 12
21 25 25 24 25 27 26 26 25 24 25 25 24 24 24 24 22 21 19 18 18 19 18 18 17 16 15 14 14 13 12 11 11 11 10 10 9 8 8 7 8 7 7 7 7 7 7 7 7 7 8 8 7 7 6 6 5 4 5 5 4 4 5 6 5 5 6 6 6 6 7 8 8 8 8 10 11 11 10 10 10 9 9 10 11
23 26 25 22 26 27 26 26 24 25 25 25 25 24 24 23 21 21 20 19 19 19 17 16 16 15 14 14 13 12 11 11 11 10 10 9 8 8 7 6 6 6 6 6 6 6 6 6 6 6 7 7 7 7 6 6 5 5 5 5 4 4 5 6 6 6 6 6 6 6 7 7 7 7 8 9 11 11 10 9 9 9 8 9 10
23 26 26 23 25 26 26 25 24 25 25 26 25 24 23 21 21 22 21 20 19 18 16 15 14 14 13 13 12 11 11 11 11 10 9 8 8 7 7 6 6 6 5 5 5 6 6 6 6 6 6 6 6 7 6 6 5 6 5 5 4 4 4 5 6 5 6 6 6 6 6 7 6 7 7 8 10 10 10 9 9 9 9 8 9
23 24 25 24 25 26 25 24 24 25 25 26 25 23 22 21 21 21 20 19 18 17 15 14 13 13 12 11 11 11 11 11 10 9 8 8 7 7 7 6 6 5 5 5 5 5 5 5 5 5 5 5 6 6 6 6 5 6 5 5 4 4 4 5 5 5 5 6 6 6 5 5 5 6 7 7 8 9 9 10 9 9 9 8 8
24 23 23 23 24 25 25 24 25 25 26 25 24 22 21 21 20 19 19 18 17 16 14 13 12 12 11 11 10 10 10 10 9 9 8 7 7 7 7 7 6 6 5 5 4 5 5 4 5 5 5 5 6 6 7 6 5 5 5 5 5 4 4 4 4 5 5 5 5 5 5 5 4 6 7 7 7 9 9 9 8 9 9 9 8
25 23 23 23 23 24 24 24 25 25 26 24 23 22 22 20 18 18 17 17 16 14 13 12 11 11 11 10 10 9 9 9 9 8 7 7 7 8 9 8 7 7 6 5 4 4 4 4 5 5 5 5 6 6 6 6 5 5 5 6 5 5 4 4 4 4 4 4 4 5 5 5 4 4 6 7 7 8 9 8 7 8 8 8 8
24 23 23 23 23 23 23 24 25 24 25 24 23 22 21 20 18 17 17 16 15 13 12 11 11 10 10 10 10 9 9 9 8 8 7 7 7 9 10 9 8 8 6 6 5 5 5 5 5 6 5 6 6 7 7 6 5 5 5 5 5 5 5 4 3 3 3 4 4 4 4 5 5 4 5 6 6 7 8 7 7 7 8 8 8
23 22 22 23 23 23 22 22 23 23 23 23 23 22 21 19 17 17 16 15 14 12 11 10 10 10 9 9 9 9 8 8 8 7 6 7 8 10 10 9 7 7 7 6 7 6 6 6 6 6 6 6 6 7 7 6 5 4 4 4 4 4 6 5 4 4 3 3 3 4 3 4 5 4 4 5 5 6 7 7 6 7 7 7 7
22 23 21 21 22 23 22 21 22 21 22 23 22 22 20 19 17 16 15 14 13 11 10 9 9 9 9 9 9 8 8 7 7 7 6 7 9 9 9 8 7 7 7 7 7 7 6 6 6 6 6 6 6 7 6 6 5 4 4 4 5 5 5 5 4 3 3 3 3 3 3 3 5 6 4 5 5 5 6 7 6 6 7 6 7
22 22 22 21 21 22 22 21 21 21 21 22 22 21 20 18 17 16 15 14 13 11 10 9 9 9 8 8 8 7 7 6 6 7 6 7 8 8 8 7 6 6 6 7 7 6 6 6 6 6 6 6 6 6 6 6 6 5 4 4 5 5 5 5 4 2 2 2 2 2 3 3 5 6 5 5 5 5 5 6 6 6 6 6 6
21 22 22 21 20 21 22 22 21 21 21 20 20 20 19 18 16 15 14 14 13 11 10 9 9 9 8 8 8 7 6 5 5 6 6 6 7 7 7 6 5 5 6 6 6 5 5 5 5 5 5 5 5 5 5 6 6 5 5 5 5 5 5 5 4 3 2 2 2 2 2 3 4 4 5 5 5 5 5 6 6 5 5 5 5
21 22 22 21 21 20 21 22 22 21 20 19 19 19 18 17 16 15 14 13 13 11 10 9 8 8 8 8 7 7 6 5 4 4 5 5 6 6 6 6 5 4 5 5 5 5 4 4 4 4 4 4 4 4 5 6 6 5 5 6 6 5 4 4 4 4 2 1 2 3 2 3 4 4 4 5 4 5 4 5 5 5 5 4 5
22 23 23 22 21 21 21 22 22 20 20 19 19 18 18 17 16 15 13 13 12 12 11 9 8 8 8 8 7 6 5 5 4 3 3 4 5 5 5 5 5 4 4 4 5 4 4 4 4 4 4 4 4 4 4 6 6 5 4 5 5 5 4 4 3 3 2 1 1 3 2 2 4 4 4 5 5 5 5 5 5 6 6 5 4
22 23 23 23 22 23 22 22 22 22 20 19 19 18 18 17 16 15 13 13 12 12 11 10 9 8 8 8 7 6 5 5 4 3 3 4 4 5 4 4 5 4 4 4 4 4 4 3 3 3 2 3 4 4 4 6 6 4 3 5 5 4 5 5 3 2 2 2 1 2 3 2 4 4 4 6 5 5 5 5 6 6 6 5 4
23 23 24 24 23 23 22 22 22 22 21 19 19 19 18 17 16 15 14 13 13 12 11 10 10 9 8 7 7 6 5 4 3 3 3 3 3 3 4 4 4 5 5 3 3 3 2 2 1 1 1 2 3 4 5 5 5 4 4 4 4 4 5 5 4 2 1 2 2 1 3 3 4 4 4 5 6 6 6 6 5 6 7 6 5
23 22 23 24 24 23 22 23 23 22 21 20 20 19 18 17 16 16 14 14 13 13 12 10 10 9 8 7 7 6 5 4 3 3 2 2 2 3 3 3 3 4 5 3 2 1 1 1 1 2 3 3 3 4 4 4 4 4 3 3 3 4 5 4 4 3 2 2 2 1 1 4 4 4 4 5 5 5 6 6 5 5 6 6 6
23 22 22 24 25 24 22 22 23 23 21 21 21 20 19 17 16 16 15 14 14 13 12 11 10 9 8 8 7 6 6 4 4 3 2 2 1 1 2 3 3 3 3 2 1 1 2 2 2 3 3 4 4 3 3 3 4 3 3 3 3 3 3 4 4 4 3 3 2 2 1 3 5 5 5 4 4 5 6 6 6 6 6 6 7
24 23 23 24 25 24 23 23 23 23 22 22 21 20 19 18 17 16 16 15 14 13 12 11 10 9 9 8 7 7 6 5 4 3 2 2 0 1 1 2 3 3 2 1 0 1 2 2 2 3 4 4 4 3 2 2 2 2 3 3 3 3 3 3 4 5 4 3 3 2 2 1 4 6 5 5 5 6 6 6 6 7 6 6 7
25 24 25 24 24 24 23 23 22 23 22 22 21 19 20 19 18 17 17 16 15 14 13 12 11 9 9 9 7 7 6 5 4 3 3 3 2 1 1 2 3 3 2 2 2 3 3 3 4 5 6 5 4 2 0 1 1 2 3 3 3 3 3 3 4 5 4 4 3 3 3 2 2 5 6 6 6 6 6 6 7 7 7 7 7
25 25 25 24 24 24 23 23 22 22 22 22 20 19 20 19 18 17 17 16 15 14 14 13 11 10 10 9 8 7 6 5 4 4 4 3 2 2 2 2 2 3 3 3 3 4 4 4 5 5 6 4 3 1 1 1 1 2 2 3 3 3 4 4 4 4 4 4 3 3 3 3 3 3 6 6 6 6 6 6 6 6 7 8 8
27 26 25 24 25 24 24 23 22 22 21 21 19 18 19 18 18 18 17 17 16 15 15 13 12 11 10 9 9 8 7 6 5 5 4 3 3 3 3 3 3 3 3 4 3 4 4 4 4 4 4 3 2 1 1 2 1 2 2 2 3 3 4 4 4 4 4 5 4 3 4 4 4 3 4 6 7 6 6 7 7 7 8 8 8
28 27 25 24 24 24 24 24 23 21 20 19 18 18 17 17 18 18 17 17 17 16 15 13 12 11 10 10 10 9 8 7 6 6 5 4 3 3 3 3 4 4 4 4 4 4 3 4 3 3 3 2 2 2 2 2 1 2 3 3 3 3 3 3 4 5 5 5 4 3 4 4 4 3 3 5 7 7 6 7 8 8 8 8 8
27 26 25 24 23 24 24 24 23 21 20 19 18 18 16 16 17 17 17 17 16 15 13 13 11 12 12 12 10 10 10 9 8 7 6 5 4 4 4 4 4 5 4 4 4 4 3 3 3 3 2 2 2 2 1 1 1 2 3 4 3 2 3 4 5 5 4 4 4 3 4 4 4 5 3 3 6 8 7 8 9 9 9 9 8
27 27 26 24 24 24 24 24 23 22 21 19 18 17 16 16 16 16 16 15 15 13 12 12 12 14 14 13 11 11 11 10 9 8 7 6 5 5 5 5 5 5 5 5 4 4 3 4 3 3 3 2 2 2 2 1 1 2 3 4 2 2 2 4 5 5 4 5 4 3 3 4 5 5 3 2 5 9 9 8 9 8 9 9 8
26 27 26 25 25 24 24 23 23 22 21 20 18 17 16 16 16 15 15 14 14 13 12 12 14 16 15 13 12 12 12 11 10 9 8 7 7 7 7 7 6 6 6 5 4 4 4 4 3 3 3 2 2 3 3 2 2 2 2 3 3 2 2 3 4 5 5 5 4 3 3 3 4 5 4 3 3 7 10 10 8 8 9 10 9
24 26 27 26 25 24 23 22 23 23 22 21 19 18 17 16 15 15 14 14 13 13 12 13 16 17 15 14 13 13 13 12 11 10 9 9 8 8 8 7 7 6 6 6 5 5 4 3 3 3 3 2 2 3 3 2 2 3 3 3 3 2 1 3 4 5 5 5 4 3 3 3 3 3 4 4 4 4 8 10 9 8 9 9 9
23 25 27 27 26 24 23 22 22 23 22 21 20 19 18 16 16 15 14 14 14 13 13 14 17 17 15 15 14 14 13 12 12 11 10 10 9 9 9 8 7 7 7 7 7 6 5 4 3 3 3 2 2 2 2 2 3 3 2 2 1 2 0 2 4 5 5 5 4 3 3 4 3 3 3 4 4 3 3 7 9 9 9 9 9
24 24 26 26 25 24 24 23 22 23 23 22 20 19 18 16 16 15 15 15 16 17 17 17 18 17 16 16 15 14 14 13 12 12 11 11 10 10 10 9 8 7 8 8 8 8 6 5 4 3 2 1 2 1 1 2 3 2 2 1 1 2 1 2 4 4 4 4 5 4 3 3 3 3 3 3 2 2 2 3 6 7 8 8 9
25 25 26 26 25 25 25 23 23 24 23 22 21 19 18 16 16 16 17 19 21 20 20 20 18 17 17 17 16 15 14 13 12 12 12 11 11 12 11 10 9 8 8 8 8 9 7 6 5 5 3 2 3 2 1 2 2 2 2 2 1 2 1 2 3 4 4 4 5 5 3 2 1 2 2 1 2 2 2 2 3 4 5 7 8
24 26 27 28 27 25 26 25 23 24 23 22 21 19 18 16 17 18 20 23 24 21 21 21 20 19 18 18 17 15 15 13 13 13 12 12 12 13 13 12 10 9 9 9 9 10 9 7 6 6 5 3 3 3 2 2 2 3 3 3 2 2 0 1 2 3 4 4 5 5 4 3 3 3 2 0 1 3 3 4 3 4 5 5 6
23 25 26 28 27 25 25 26 26 26 24 22 20 19 17 16 17 18 20 23 24 23 22 22 21 20 19 19 17 16 15 14 13 13 13 13 14 14 14 14 12 11 10 10 10 10 10 9 7 6 6 5 4 2 1 1 2 2 2 3 4 2 1 0 2 3 3 3 3 4 4 4 4 4 3 2 2 3 3 3 3 3 4 4 5
23 24 25 27 28 26 25 26 29 29 26 21 19 19 18 18 18 18 18 20 21 22 24 23 21 21 21 19 18 17 16 15 14 14 13 14 14 15 15 15 14 13 12 12 11 11 10 9 9 7 6 5 4 2 1 1 1 1 1 3 5 3 2 1 2 3 3 3 2 2 4 4 5 5 5 5 4 3 3 3 2 2 2 3 3
23 24 25 27 29 29 27 28 30 30 28 25 24 23 22 21 20 19 18 17 17 19 23 24 21 21 22 20 18 17 16 16 15 14 14 14 15 15 15 15 15 14 14 13 12 11 11 10 10 8 6 5 3 3 2 1 1 2 4 5 4 3 1 1 2 3 3 3 2 2 2 4 5 5 6 7 7 5 5 4 4 3 3 2 2
25 26 27 28 29 29 30 30 30 31 32 31 30 28 26 25 22 19 18 16 16 19 20 22 22 21 22 20 19 19 18 17 16 15 15 15 15 15 15 15 15 15 16 15 13 12 11 11 10 8 6 5 3 3 3 3 2 3 5 5 4 3 1 1 2 2 2 3 3 2 1 3 4 5 6 7 7 7 7 7 6 6 5 4 3
25 27 28 28 28 29 29 29 31 33 34 34 34 33 31 30 26 22 20 16 15 20 21 21 23 22 21 21 20 20 19 18 17 16 16 15 15 15 15 15 15 16 16 15 13 12 11 11 10 8 6 4 3 4 5 4 3 4 4 4 3 3 2 2 2 1 1 3 3 2 2 1 2 4 5 5 6 6 6 7 7 7 6 5 4
25 27 29 29 29 30 31 33 35 36 35 36 37 35 32 32 29 26 23 19 16 19 22 22 23 22 22 22 22 21 20 19 18 18 17 16 15 15 15 15 16 16 16 14 12 12 12 11 11 10 7 5 4 5 6 5 5 5 4 3 2 2 2 2 3 3 1 3 4 3 3 2 2 3 3 4 4 5 5 5 6 7 7 7 6
27 28 30 30 30 31 35 37 37 36 36 38 37 33 30 29 26 23 21 19 17 17 18 19 21 23 22 22 24 23 21 20 20 19 19 18 18 17 16 16 16 17 17 15 13 13 13 12 11 10 9 6 4 5 6 6 7 7 4 2 2 2 2 3 4 3 3 4 4 4 5 4 3 3 2 2 3 4 3 4 5 6 7 7 6
29 29 30 30 30 30 34 37 36 36 36 35 35 33 31 29 25 22 20 19 18 17 18 18 19 23 23 22 24 24 22 21 21 21 20 19 19 19 18 17 17 17 16 15 14 14 13 12 12 11 9 8 6 6 7 7 8 8 7 5 2 1 1 3 3 2 3 4 5 6 6 6 5 5 4 1 1 2 2 2 4 5 6 7 6
31 30 29 30 30 30 33 37 37 36 35 33 34 34 31 29 28 26 23 21 20 19 21 21 21 25 26 25 26 26 24 23 22 22 21 20 20 20 20 19 19 18 17 16 15 14 13 13 12 11 10 10 9 8 7 7 7 8 8 7 4 2 2 4 3 2 2 4 5 6 7 6 7 6 5 4 2 1 0 1 2 3 4 5 5
32 29 29 30 31 32 34 38 38 36 36 34 35 36 34 31 30 28 24 24 22 20 22 25 24 26 27 27 27 27 26 24 23 23 22 21 20 20 20 20 20 19 18 17 16 14 14 14 12 12 11 10 11 10 8 8 7 7 7 7 5 5 5 5 5 4 3 3 4 6 7 7 7 7 7 6 5 4 3 1 1 1 2 3 3
31 29 31 31 31 33 34 37 38 37 37 38 38 38 38 36 32 28 25 24 23 20 21 24 24 26 27 27 27 27 27 26 25 25 24 22 21 20 20 20 20 20 19 17 16 15 15 14 13 13 12 11 12 12 10 9 9 7 7 7 5 4 5 5 5 6 5 4 3 4 7 7 7 8 10 9 7 7 6 4 3 3 1 1 2
30 30 30 28 27 29 31 34 37 37 37 39 40 40 40 38 34 32 29 25 23 21 20 21 23 25 25 26 27 27 27 27 26 26 25 24 23 22 22 21 20 20 20 18 17 16 15 15 14 13 12 11 12 14 13 11 10 8 7 7 6 5 4 4 5 6 5 5 5 4 6 7 7 8 10 11 10 9 9 8 6 5 4 2 2
29 28 27 27 26 26 29 32 35 36 36 38 40 40 39 38 38 37 34 28 25 24 22 21 23 24 24 24 26 27 27 28 27 27 27 26 25 24 23 22 21 21 20 20 18 17 16 15 15 14 13 12 13 15 15 13 11 10 8 7 7 7 6 5 5 6 5 5 5 5 5 6 6 7 8 11 12 11 11 11 10 8 7 6 4
Wind_Direction
117 124 128 133 136 138 136 135 135 136 135 134 134 134 138 139 137 136 137 137 137 137 136 136 133 130 128 126 121 118 115 114 113 110 109 110 110 109 109 110 111 112 114 114 115 116 117 117 115 112 109 105 104 107 110 110 107 103 99 94 90 90 90 90 97 100 100 100 106 112 111 110 108 108 108 108 107 107 109 109 107 104 106 108 109
128 131 132 134 135 137 136 135 136 136 135 134 135 138 141 141 139 139 140 139 139 138 137 136 131 127 125 121 118 117 117 115 113 111 110 111 110 109 108 108 108 109 110 110 111 112 114 114 113 111 106 103 102 107 112 113 110 104 98 93 89 89 90 91 95 99 98 96 103 111 112 110 108 110 110 108 109 109 110 109 107 107 109 111 111
130 131 133 135 134 137 136 136 137 137 137 136 139 143 144 142 142 141 141 141 141 139 136 132 127 125 123 120 120 121 119 115 112 111 111 111 110 107 107 106 105 105 104 103 104 105 108 109 111 109 106 104 103 104 110 114 112 104 96 92 90 88 91 95 96 99 102 102 104 109 109 110 111 114 112 109 109 109 109 108 108 110 109 111 111
131 131 133 135 135 136 135 136 137 137 138 141 145 147 145 144 144 143 141 141 141 139 134 129 125 125 123 123 123 121 117 113 112 111 111 110 108 106 105 104 101 99 98 98 97 98 100 102 106 107 108 109 108 105 105 112 113 106 98 94 91 89 88 92 96 100 103 107 110 108 107 112 114 113 112 110 110 111 110 107 108 110 111 112 112
133 133 135 137 139 139 138 138 137 138 143 146 150 149 146 146 144 144 143 141 139 135 131 127 126 127 126 124 121 117 114 112 113 112 111 109 106 104 102 101 97 93 92 94 95 95 94 95 99 102 106 108 109 108 105 107 108 102 98 94 88 87 85 86 92 98 103 112 117 109 110 115 113 111 110 111 111 112 112 111 110 112 114 115 116
136 135 137 139 141 143 143 141 138 142 149 151 151 150 147 146 145 145 144 141 136 131 129 128 129 129 127 123 117 114 111 110 110 109 108 107 106 103 100 98 95 92 91 93 93 91 89 89 91 94 96 97 100 101 103 102 99 96 93 87 78 78 81 84 87 93 102 112 116 110 112 115 113 114 113 113 114 111 112 114 113 114 115 116 115
137 138 139 140 143 146 146 144 143 146 152 152 150 150 148 147 147 147 144 139 133 130 130 130 132 131 126 120 115 111 109 108 106 104 102 102 103 100 98 96 95 94 91 91 89 88 86 86 86 88 89 89 90 89 92 92 93 92 84 76 69 68 70 78 83 87 100 106 111 114 118 119 117 119 119 117 116 113 117 120 117 117 117 117 116
139 140 142 142 145 147 148 147 147 149 151 151 150 150 150 149 149 147 142 137 132 131 133 135 134 129 124 118 113 110 107 105 102 100 99 98 98 98 98 96 94 93 91 89 88 88 86 86 84 82 82 81 80 79 80 81 83 84 78 69 67 73 73 77 78 81 95 100 107 117 121 123 120 123 128 123 118 116 116 119 120 121 123 120 117
142 143 144 144 147 149 150 149 149 151 152 153 151 152 152 150 149 146 139 135 134 136 137 137 133 127 122 118 114 110 106 104 101 99 98 95 94 95 96 95 92 90 90 89 87 87 83 83 81 76 73 72 71 71 71 73 74 75 76 72 73 81 82 84 82 82 91 93 103 114 122 126 121 126 131 126 123 118 114 114 121 125 125 122 118
147 147 146 145 149 152 153 151 151 152 153 154 153 153 152 150 150 145 140 139 140 141 140 136 131 127 123 120 117 110 105 102 99 98 96 93 90 90 90 91 92 91 91 90 87 85 83 81 81 75 69 68 66 63 63 64 67 71 76 78 78 78 86 90 87 89 97 101 104 111 127 126 113 124 131 128 125 117 113 112 117 121 120 121 122
150 151 150 149 152 154 155 154 153 154 154 154 153 152 150 151 150 145 144 144 143 142 139 135 132 128 124 122 119 111 105 101 98 95 92 90 86 85 85 85 87 87 87 85 85 85 84 80 80 79 72 66 62 58 57 57 60 67 72 81 81 77 86 88 94 100 105 112 111 111 130 126 118 133 137 129 124 116 114 112 110 112 110 113 117
152 153 154 152 155 156 157 156 155 156 155 155 153 152 151 152 150 147 147 146 144 142 138 136 134 130 126 124 121 113 108 103 97 91 87 86 82 82 85 85 84 82 80 79 81 81 79 78 79 81 78 69 61 55 53 56 58 63 67 75 76 75 83 81 97 111 113 120 118 116 128 128 129 131 130 128 120 117 116 114 112 109 107 104 105
154 154 155 154 157 157 158 158 157 157 157 155 153 154 153 151 150 150 150 147 145 142 138 137 136 132 129 127 124 117 111 106 97 89 85 83 78 79 82 79 80 80 79 82 86 84 82 82 84 84 80 73 63 56 54 60 61 63 62 63 67 69 88 85 93 112 113 118 119 122 130 125 126 124 127 129 118 119 117 115 115 110 107 103 101
156 156 156 157 158 158 161 160 159 159 158 156 155 157 156 153 152 153 153 151 148 144 142 142 140 135 131 130 128 121 114 107 97 92 87 86 81 79 78 72 73 75 76 84 89 91 91 88 91 88 81 73 64 59 58 62 65 70 67 62 67 67 83 94 93 111 109 109 115 123 131 123 130 136 127 125 119 122 122 119 117 112 110 107 104
159 159 158 160 159 159 161 162 162 161 160 159 159 160 159 156 154 156 156 154 152 149 148 148 145 137 134 132 131 126 117 109 100 96 93 91 87 83 79 74 74 76 78 84 88 94 94 93 96 95 88 79 69 64 61 61 64 70 74 65 65 66 77 96 102 115 107 103 113 120 133 131 137 140 121 127 127 126 126 123 120 116 114 111 109
161 162 161 161 161 160 161 164 165 163 163 163 162 162 162 161 160 161 159 158 157 154 155 155 151 140 137 135 135 131 121 113 102 98 95 91 86 81 82 79 78 79 83 89 93 97 99 101 103 104 99 88 77 71 65 62 66 66 69 61 54 57 72 89 104 120 113 101 106 115 136 140 141 137 119 131 133 130 132 130 130 123 119 115 113
164 165 164 164 163 163 163 166 168 166 165 166 165 165 166 166 166 164 163 163 161 160 161 160 158 147 141 140 139 137 125 116 106 102 90 86 84 80 81 83 86 88 94 98 101 104 107 111 111 113 106 95 84 77 74 71 73 70 62 48 39 37 54 75 90 119 123 105 103 113 139 150 144 140 133 140 138 135 135 136 141 131 124 121 116
167 168 168 167 167 166 166 168 169 168 168 169 169 169 169 170 169 169 169 170 167 166 167 166 167 157 148 144 143 141 131 123 114 106 92 86 84 82 82 84 93 100 107 110 112 116 117 120 117 114 104 94 86 77 76 75 73 73 68 54 51 40 37 58 70 102 125 122 132 126 149 162 151 146 149 154 147 144 143 139 145 139 131 125 119
171 172 172 171 171 170 170 171 171 171 171 171 172 173 173 173 173 173 174 176 176 175 173 175 175 169 159 152 149 146 142 137 124 111 100 90 85 85 86 85 92 102 114 119 118 120 119 120 115 107 99 90 82 67 58 60 59 59 64 61 68 64 43 52 58 56 91 141 174 168 171 174 169 161 159 161 152 150 145 137 143 142 133 130 126
176 176 176 176 175 174 175 175 175 175 173 173 174 176 178 176 176 177 179 182 185 185 183 184 182 181 171 163 161 157 155 150 133 120 110 97 91 89 85 82 86 95 107 118 115 111 108 110 111 105 97 83 71 56 43 43 45 40 46 55 62 62 52 55 54 51 65 141 173 184 192 173 180 181 168 166 158 153 145 138 145 146 142 145 135
181 182 181 180 180 180 180 177 178 179 176 177 177 179 182 181 182 183 185 188 192 194 192 191 188 189 185 179 175 168 167 159 138 127 120 101 93 85 77 75 76 82 97 119 119 112 107 108 114 114 105 82 67 55 39 29 33 30 25 47 54 46 44 51 56 58 56 71 156 197 204 183 185 189 180 176 171 161 153 148 153 158 159 161 145
183 184 186 185 184 184 183 181 182 183 180 181 182 183 185 186 189 189 191 194 196 198 196 194 192 193 193 191 188 181 177 170 147 131 124 104 93 80 68 64 67 72 87 114 125 126 122 120 118 116 104 71 57 40 25 17 26 36 30 40 40 31 34 38 47 61 49 60 80 205 201 202 197 196 189 182 184 173 166 165 164 168 169 168 157
185 185 187 188 188 186 185 186 185 185 185 186 188 188 188 190 193 193 194 197 198 199 197 195 197 197 196 197 198 194 187 180 168 146 133 119 104 86 72 63 67 70 77 90 116 138 137 138 132 63 346 4 18 15 10 6 18 37 49 43 27 30 37 30 30 41 32 49 48 203 198 207 215 209 198 193 193 181 175 175 175 175 174 175 165
186 185 187 189 190 188 187 188 187 186 187 189 191 192 192 193 195 196 197 198 201 202 200 198 202 203 200 201 202 200 195 194 188 168 149 134 104 87 74 62 62 66 74 80 108 160 196 205 250 297 316 338 353 359 5 5 16 33 43 38 30 38 40 28 19 17 1 12 27 26 185 203 221 222 213 209 197 186 186 181 188 186 179 184 172
185 187 188 189 190 190 189 189 189 189 190 192 193 194 194 196 197 199 200 201 203 203 202 203 207 208 208 207 205 205 203 206 204 188 175 165 97 69 61 48 41 46 65 86 130 184 222 239 265 284 301 322 339 345 1 12 21 29 28 27 31 30 28 29 19 10 359 347 353 6 9 209 221 227 224 219 200 199 204 187 191 194 186 193 179
186 189 189 189 190 190 190 189 191 192 192 193 194 195 196 198 200 201 203 204 205 205 205 208 211 212 213 214 213 213 211 214 214 199 200 210 231 23 25 26 23 24 34 17 257 244 240 252 270 288 304 315 329 329 335 8 20 20 14 7 2 5 9 20 14 7 0 344 327 328 342 274 225 224 225 222 210 207 209 197 197 199 195 200 187
188 191 190 189 189 190 190 189 192 193 194 195 195 197 198 199 202 202 204 206 206 208 210 212 214 214 217 219 217 219 218 221 224 213 215 232 248 282 330 354 7 5 354 326 304 295 282 280 289 299 308 315 328 330 306 354 1 357 358 357 355 348 349 353 354 357 355 345 321 298 307 311 257 225 222 224 224 214 210 210 205 203 203 206 196
189 191 190 189 189 190 190 190 192 193 195 197 197 198 199 201 204 205 206 208 209 210 214 216 217 217 220 220 220 225 224 225 231 226 226 238 257 270 302 329 343 343 332 326 315 307 301 297 299 307 311 310 327 353 41 358 344 340 349 359 1 347 341 341 344 346 343 339 321 291 276 288 301 243 225 226 231 221 214 217 214 210 211 213 209
191 190 190 190 190 190 191 192 192 193 195 196 198 200 201 202 205 206 208 210 212 214 217 219 221 222 223 221 223 229 228 230 233 230 232 243 267 275 300 320 323 329 325 320 315 308 306 300 296 308 315 311 326 346 347 353 336 333 341 342 349 345 337 342 348 346 339 331 318 294 271 269 288 282 238 231 236 230 220 222 220 217 216 214 216
192 190 190 190 190 191 193 194 193 193 194 195 198 201 201 204 206 208 210 213 214 218 220 221 225 225 225 225 224 230 230 232 233 231 232 243 260 273 300 315 317 323 321 312 301 297 299 295 288 293 308 309 316 315 323 344 328 326 328 309 309 324 330 337 341 345 345 337 322 294 280 273 272 281 264 238 236 234 225 226 228 225 223 215 213
191 191 192 191 191 192 194 194 194 195 195 196 200 202 203 206 208 209 212 214 215 218 221 221 224 226 229 229 227 230 232 233 235 232 232 240 253 270 288 298 309 313 309 306 293 287 295 296 289 280 286 286 296 303 315 337 335 331 326 308 288 288 327 337 335 341 349 342 331 299 284 285 277 269 263 243 233 234 232 230 234 234 233 228 218
192 193 192 191 191 193 194 194 195 197 196 198 200 203 206 208 210 211 214 216 216 217 220 220 224 228 231 230 229 230 232 236 236 234 234 241 256 271 283 289 298 301 297 300 291 280 292 300 287 279 279 265 273 301 310 316 326 328 329 328 297 247 323 336 335 341 348 343 331 307 287 286 295 295 286 259 232 234 240 240 240 242 246 245 236
193 194 192 192 193 193 194 194 196 198 199 199 201 205 207 210 211 213 215 217 217 219 220 222 226 231 232 229 230 231 232 237 238 236 238 246 259 269 280 286 289 291 287 287 283 277 290 303 296 293 293 280 290 310 312 297 292 297 303 320 300 251 308 334 338 341 345 345 324 301 294 284 300 314 323 324 265 237 240 246 246 242 249 251 246
190 192 193 194 194 194 194 195 196 199 201 201 202 205 207 209 211 213 216 217 217 220 222 226 230 233 234 232 233 234 235 237 238 239 241 249 260 267 275 285 288 283 277 277 275 272 279 292 301 307 305 298 306 318 321 309 285 279 287 307 291 252 297 331 334 336 337 341 328 297 292 296 306 312 322 326 313 258 236 241 245 239 241 248 245
186 188 191 193 193 193 194 196 197 199 202 202 202 205 206 207 210 212 215 216 217 219 222 228 234 235 236 237 236 236 237 238 238 241 245 252 260 267 273 282 288 277 268 270 267 266 267 274 294 306 304 299 305 316 321 311 288 274 290 305 246 207 276 342 334 336 337 341 339 316 293 300 308 312 316 308 306 301 250 239 246 244 241 245 244
188 185 188 190 192 193 195 196 197 199 201 203 203 204 207 207 209 212 215 218 219 223 228 232 236 238 239 241 240 237 238 238 239 241 245 252 258 265 271 278 283 271 263 268 262 259 261 266 285 295 294 289 283 293 290 287 285 275 292 305 189 169 119 357 343 343 346 349 348 338 320 305 294 307 317 299 275 288 294 248 245 247 247 251 251
190 188 187 189 191 193 196 196 196 198 200 203 204 205 208 209 211 215 219 224 226 230 235 237 238 240 241 242 241 240 239 239 239 239 243 251 258 262 268 273 276 266 262 268 260 255 257 261 277 289 287 276 273 279 256 234 254 263 263 244 159 127 77 1 348 344 346 349 354 356 357 357 330 334 339 282 245 257 288 287 260 253 253 257 259
192 191 191 192 192 192 195 196 197 198 200 202 204 207 209 210 215 220 225 230 232 234 237 240 240 241 243 243 242 241 241 238 237 239 243 251 259 262 265 268 267 261 260 267 262 256 259 257 264 284 286 272 273 283 265 233 244 253 249 223 181 144 59 348 343 341 340 342 354 5 12 22 32 35 49 110 254 278 297 302 294 277 267 266 265
194 193 193 194 194 193 195 198 201 202 203 203 203 206 208 211 217 221 228 232 234 235 237 240 241 242 244 243 241 241 240 238 238 242 248 255 261 263 263 263 260 257 257 264 262 254 257 257 256 273 284 279 279 276 245 247 253 247 238 205 188 173 148 148 336 325 312 321 344 6 21 29 38 41 30 20 1 326 319 313 300 283 282 286 276
195 194 193 195 195 195 194 199 204 205 204 203 201 204 207 210 214 217 223 228 230 234 237 239 241 242 243 243 241 239 237 237 240 246 252 258 262 263 262 261 258 254 254 261 262 254 255 258 256 264 274 275 268 241 206 224 244 224 136 164 171 156 140 212 311 309 290 287 308 352 27 34 38 45 33 22 19 9 359 346 329 304 299 305 299
196 194 194 196 198 198 197 201 205 205 204 204 203 203 204 205 208 211 216 220 222 228 235 237 238 241 242 242 240 237 234 236 242 248 255 259 260 261 262 261 258 254 253 260 263 257 256 256 253 256 262 260 251 231 204 194 207 152 120 130 141 138 143 265 297 301 279 258 268 311 22 34 39 44 36 28 27 36 48 46 36 26 7 2 359
196 195 196 198 199 199 201 202 203 205 208 209 207 206 205 206 207 208 213 216 218 223 229 234 237 240 242 241 238 235 233 236 242 247 254 259 258 259 260 261 259 253 253 257 260 256 254 252 247 246 253 250 241 212 186 182 194 164 143 138 138 143 165 268 289 297 269 236 243 268 343 32 42 42 38 37 44 57 63 61 61 56 46 44 41
198 197 199 198 198 199 201 201 203 207 210 210 211 210 211 214 213 212 214 214 218 227 231 235 239 241 242 240 236 235 235 238 242 245 251 257 258 258 260 261 257 253 252 254 255 252 248 246 240 238 240 229 213 192 181 182 171 152 152 159 164 174 188 217 229 258 265 227 225 241 275 353 21 28 39 50 60 69 70 67 66 65 63 67 63
202 201 199 198 198 199 201 202 205 208 209 211 214 213 214 217 218 218 220 221 225 234 235 237 241 242 241 239 237 235 236 239 242 244 249 254 259 259 259 259 257 254 253 252 251 247 244 240 234 234 234 224 206 185 183 190 182 171 167 160 166 203 214 190 191 204 240 224 214 228 256 275 321 350 25 57 70 77 78 73 69 64 62 67 74
204 203 201 199 199 200 203 205 207 208 209 212 213 211 211 213 213 215 221 224 226 229 229 230 234 237 238 238 238 236 237 241 243 246 248 253 258 259 258 257 257 256 254 253 251 246 242 238 233 233 235 235 215 184 188 198 200 195 187 168 169 218 217 175 186 202 218 224 218 225 246 254 270 297 323 39 70 74 77 76 69 64 60 62 71
206 205 203 202 202 201 203 205 206 208 209 210 209 208 208 208 204 203 207 212 216 218 217 217 221 229 232 234 237 237 238 242 245 247 249 253 256 257 258 257 256 256 255 255 253 247 241 236 235 233 234 234 212 186 190 200 205 203 201 206 227 257 150 165 191 205 204 221 228 228 237 245 254 267 275 276 70 65 58 60 60 59 57 61 71
207 206 204 204 203 201 202 204 206 207 208 207 206 207 206 204 204 204 204 206 209 212 215 216 220 228 231 233 237 238 238 242 246 247 249 253 255 253 255 257 256 256 255 256 255 248 240 238 239 234 236 236 214 197 196 197 200 205 209 217 226 225 184 183 204 216 206 219 229 233 235 236 243 251 253 249 243 235 19 20 30 46 48 52 66
207 204 204 204 203 202 203 205 206 207 207 205 205 206 205 205 206 206 207 209 210 211 217 220 223 229 232 234 236 238 238 240 243 246 247 252 253 250 252 255 255 254 253 255 257 251 243 243 240 233 236 237 220 208 203 202 204 202 204 212 220 224 223 219 222 230 242 238 224 227 231 235 241 243 240 239 240 232 221 240 301 356 32 31 45
206 205 206 205 204 203 204 206 207 207 208 207 207 208 209 208 206 205 208 212 212 214 218 221 223 227 230 232 234 236 237 238 240 243 245 249 251 250 251 253 254 253 251 254 256 254 249 246 240 234 237 238 227 218 212 213 217 209 198 203 209 214 220 224 223 226 242 253 241 225 223 228 238 243 240 239 239 236 230 229 249 275 304 350 7
206 208 208 207 205 203 203 205 208 208 207 208 208 208 209 209 207 207 209 209 209 211 213 216 220 222 224 227 231 232 234 236 238 240 242 245 248 249 250 251 252 251 250 252 254 254 251 246 240 237 241 243 234 227 222 221 223 221 210 203 202 202 209 217 218 220 230 243 257 253 230 225 236 240 237 237 239 239 238 234 237 254 262 267 294
206 209 209 207 207 205 203 206 209 208 207 208 208 209 208 208 210 212 211 209 207 207 209 211 214 217 218 220 225 228 231 234 236 238 241 243 244 245 249 250 250 249 249 250 252 252 251 246 240 239 243 244 238 231 229 228 228 227 223 213 210 216 221 226 225 222 225 231 245 259 250 244 254 253 240 240 243 246 246 243 241 247 252 256 265